Location: DARK SKY Beskydy - Park tmavé oblohy, www.darkskybeskydy.cz
(49.4926°N, 18.5016°E)
Time: 04:36:43
(UTC+01:00)

Envisat - Pass Details

Date: 09 December 2022
Orbit: 763 x 765 km, 98.2° (Epoch: 05 February)

Event Time Altitude Azimuth Distance (km) Brightness Sun altitude
Rises 04:54:15 0° 8° (N) 3,245 6.3 -24.1°
Reaches altitude 10° 04:56:40 10° 2° (N) 2,314 5.4 -23.7°
Enters shadow 04:58:33 22° 350° (N) 1,655 4.5 -23.4°
